Location: Bernadets
(43.3537°N, 0.3167°E)
Time: 04:14:40
(UTC+00:00)

deb Chang Zheng 4 - Pass Details

Date: 24 October 2021
Orbit: 595 x 616 km, 98.6° (Epoch: 29 November)

Event Time Altitude Azimuth Distance (km) Brightness Sun altitude
Rises 17:37:25 0° 156° (SSE) 2,824 6.8 -7.2°
Reaches altitude 10° 17:39:35 10° 152° (SSE) 1,928 5.9 -7.6°
Maximum altitude 17:43:42 60° 73° (ENE) 687 3.5 -8.4°
Drops below altitude 10° 17:47:52 10° 353° (N) 1,953 6.1 -9.1°
Sets 17:50:05 0° 350° (N) 2,865 7.0 -9.5°
